Showing default

YAOGAN-36 04C, 54750

Orbit data source: Space-Track

YAOGAN-36 04C, 54750 is a payload satellite owned by PLA GAD (CN) in LEO that was launched on Wed, 14 Dec 2022 UTC via a CHANG ZHENG 2D launch vehicle from the Xichang Space Center, China (XSC). Payload-class satellites include a variety of spacecraft equipped with specific instruments for various scientific and technological missions. These include communications satellites like Starlink; space stations such as the ISS; scientific satellites like the Hubble; Earth observation satellites from companies like Planet Labs, Umbra, and HawkEye 360; GPS; miniature CubeSats for education and research; and military/defense satellites.

Loading next visibility...
Identifier
54750, 2022-171E
Orbit
LEO
Country
Flag of CNCN / PRC
Related business
Manufacturer
DFH
Mission
Operational Defense Sigint
Bus & Motor
Unknown
Mass
~300 kg wet, ~300 kg dry
Launch date (UTC)
2022-12-14 (3 years ago)
Launch vehicle
CHANG ZHENG 2D
Launch site
Xichang Space Center, China (XSC)
Object type
Payload
Rocket body
Debris
Shape & HBR
Box + 2 Pan, 2.5 m
Radar Cross Section
11.063 m², Large (>1 m²)

Expand to show TLE details & history
Last TLE update: 16 hours ago

TLE from 16 hours ago
0 YAOGAN-36 04C
1 54750U 22171E   25348.94662773  .00010878  00000-0  39560-3 0  9990
2 54750  34.9900 274.8763 0008469 241.0967 118.8899 15.27428146167256
Epoch: 2025-12-14T22:43Z
TLE epoch observation values (Epoch: 2025-12-14T22:43:08.635Z)
Latitude
-0.00006°
Longitude
-149.76201°
Altitude
485.218 km
Speed
7.623 km/s
True Right ascension
18h 19m 30s
True Declination
0° 00' 00"
Sunlit
Object was in daylight at epoch
Visualization orbit readout
Latitude
Unknown
Longitude
Unknown
Altitude
Unknown
Speed
Unknown
Apparent Right ascension
Unknown
Apparent Declination
Unknown
Sunlit
N/A
Visualization observer readout
Local Sidereal Time
13:22:54
Azimuth
Unknown
Elevation
Unknown
Doppler factor
Unknown
Orbital elements
Apogee altitude
492.576 km
Perigee altitude
480.948 km
Semi-major axis
6,864.899 km
Eccentricity
0.00085
Inclination
34.99°
RAAN
274.8763°
Arg. of periapsis
241.0967°
True anomaly
118.97483°
Mean anomaly
118.8899°
Eccentric anomaly
118.93237°
Mean motion
3.81586 °/min
Orbital period
94.34 mins
BSTAR
0.0003956
Loading maneuver chart data...
Computing Atmospheric mass density...
Loading historical data...
Loading historical data...
Loading historical data...
Loading historical data...
Loading historical data...
Loading historical data...
Loading historical data...
Other satellites on launch #171 in the year 2022 (2022-12-14 UTC)

Documentation

Showing up to 5 results
|